Theta_e
305 306 307 308 309 310 311 311 311 311 312 312 313 314 313 313 314 312 311 316 318 324 326 326 326 321 320 320 313 317 312 317 311 306 306 304 303 306 306 306 303 302 299 297 299 298 296 316 315 308 310 311 310 308
306 306 307 308 309 310 310 311 311 311 311 312 313 313 313 313 314 314 311 318 319 320 327 333 331 326 332 327 321 320 318 319 321 313 310 309 307 307 307 302 310 302 304 300 303 304 311 312 312 312 311 308 308 307
306 307 307 308 309 310 310 310 310 311 311 312 312 313 313 313 314 313 310 314 321 321 323 324 325 331 329 331 330 316 319 324 320 326 316 314 307 311 302 303 305 311 312 306 309 312 313 314 312 311 309 307 308 308
306 307 307 308 309 310 310 310 310 311 311 311 311 312 312 313 313 313 310 315 316 317 317 323 330 322 330 328 330 331 326 331 332 328 319 314 311 315 309 309 310 312 313 312 308 309 312 312 311 309 309 310 309 309
306 306 308 308 309 310 310 310 310 310 310 311 312 312 312 312 312 311 311 313 316 319 316 318 328 327 325 328 327 328 326 328 323 319 315 310 317 314 313 311 308 311 311 307 303 310 309 308 310 313 310 310 310 309
306 306 308 309 309 310 310 310 310 310 310 310 311 312 311 311 311 312 315 320 318 322 318 313 323 326 329 328 326 326 327 327 325 317 315 316 321 312 305 307 313 314 315 315 311 314 312 314 315 314 312 312 314 314
305 306 308 309 310 309 309 309 309 309 309 310 310 310 310 310 308 309 312 322 311 317 322 315 313 323 328 327 326 324 326 323 320 318 316 314 313 316 310 303 311 314 316 317 317 317 313 314 313 313 312 313 314 313
306 307 308 309 309 309 309 308 308 309 309 309 309 309 309 309 308 309 314 312 313 313 323 314 309 313 328 320 318 323 319 317 317 320 317 314 315 315 305 312 315 316 320 320 318 317 316 315 311 312 311 310 310 311
306 307 309 309 309 309 309 309 308 308 309 309 309 309 309 309 313 320 318 315 321 325 319 318 306 306 325 320 321 320 321 312 319 315 313 315 310 305 311 312 316 317 317 313 314 313 311 310 310 311 311 312 311 312
307 308 308 309 309 309 308 308 308 309 309 309 308 311 313 322 319 323 325 321 318 320 321 314 317 312 318 317 317 316 318 312 307 314 317 311 307 312 317 318 318 316 315 314 308 308 309 309 310 312 311 313 313 312
307 308 309 309 309 309 308 308 309 308 308 310 311 314 326 319 325 321 318 316 318 315 318 315 313 309 316 314 312 318 312 312 305 311 310 307 305 312 318 317 318 316 314 313 313 314 312 312 312 313 312 314 313 311
308 308 308 308 308 308 308 309 308 305 312 307 306 309 318 321 317 315 313 316 314 311 317 312 315 317 321 324 316 317 312 313 305 315 308 302 309 315 315 315 317 315 315 315 316 314 313 309 310 309 308 307 307 308
308 308 308 308 308 308 308 308 308 307 307 312 311 313 318 316 300 307 304 307 311 314 319 317 315 318 321 319 314 313 309 306 313 306 304 306 312 316 318 318 315 315 315 313 311 311 312 310 310 307 304 304 303 302
308 307 307 307 307 307 307 308 308 308 306 307 312 294 308 308 310 310 309 313 317 319 318 318 317 316 318 314 314 310 311 311 304 301 302 308 312 314 314 312 311 311 310 309 309 308 307 307 307 305 303 300 300 299
307 306 306 306 306 306 307 308 308 308 310 309 316 299 308 314 314 315 318 316 315 318 314 317 317 316 313 312 313 309 307 303 304 303 307 312 310 309 309 309 308 306 306 306 305 303 301 302 301 299 299 298 298 298
305 304 305 306 307 307 307 307 307 312 314 314 317 313 313 311 312 313 314 314 317 315 318 316 314 309 308 310 307 304 303 300 304 309 308 307 306 306 305 306 306 305 303 300 299 298 297 297 296 296 297 292 292 293
303 305 307 307 307 307 306 311 311 310 311 315 314 319 317 315 315 314 316 315 321 316 312 314 310 308 312 305 303 307 304 305 303 302 304 303 303 303 304 304 303 302 299 297 296 296 296 297 296 291 289 289 290 291
304 311 308 307 309 307 311 311 315 314 312 316 312 318 317 317 315 317 319 321 321 319 317 311 314 306 302 300 298 300 305 304 304 303 302 302 301 301 301 300 299 298 297 297 296 294 292 291 289 287 287 288 288 287
309 310 307 308 311 314 311 313 320 314 313 316 317 318 318 318 316 316 314 317 317 316 315 308 300 299 297 301 301 302 303 303 300 300 300 302 302 300 299 299 298 296 296 294 291 290 290 290 288 287 287 287 285 286
303 303 304 306 306 316 317 318 325 316 313 316 317 315 316 313 314 310 308 310 309 307 300 297 296 298 299 301 302 301 301 301 300 298 297 297 301 301 300 297 295 295 293 290 289 289 288 287 287 287 287 286 285 285
302 310 305 309 311 316 316 316 314 316 315 315 316 317 312 312 308 305 302 305 301 299 297 298 299 300 301 300 301 302 300 300 297 296 296 295 297 296 294 294 294 292 289 287 286 287 287 286 286 287 287 286 286 286
316 308 314 313 316 318 317 322 316 315 315 315 315 316 312 309 305 301 301 297 294 295 297 299 301 301 299 297 297 298 298 301 301 296 293 294 293 292 291 291 290 288 287 286 286 287 286 287 287 287 287 286 287 287
309 316 321 317 313 306 307 320 318 318 310 313 314 311 310 307 303 303 294 295 294 295 294 294 296 296 296 297 298 296 297 296 294 294 292 291 292 292 291 290 289 287 285 286 287 287 287 286 287 286 287 286 286 285
313 320 316 310 309 305 313 312 316 314 313 310 311 307 307 304 302 295 290 292 293 294 292 293 294 293 295 296 294 293 293 294 292 293 291 290 289 289 289 288 288 288 287 286 286 287 287 286 286 286 286 285 285 285
306 307 308 296 312 311 306 307 311 310 307 310 309 307 307 307 297 292 289 290 291 290 291 292 292 292 292 293 294 293 294 291 290 289 290 289 289 288 288 288 288 288 287 286 285 286 286 286 286 286 285 285 284 284
297 309 303 307 309 308 307 305 307 308 308 307 309 310 305 298 292 287 288 290 289 289 290 290 290 291 293 293 291 291 291 292 290 287 288 289 288 287 285 284 284 285 287 287 286 286 285 286 286 285 285 285 285 285
300 305 312 316 313 313 310 312 312 309 306 305 307 305 300 291 286 287 290 292 290 292 293 293 293 294 292 292 293 293 292 292 291 290 290 290 289 289 287 285 284 285 288 287 287 287 286 285 285 285 285 285 285 285
310 311 306 308 306 307 304 303 301 299 301 302 302 294 291 290 286 291 292 294 294 295 295 296 296 296 294 293 292 291 291 291 291 291 290 290 289 289 289 288 288 286 287 288 288 287 287 286 285 285 285 285 285 286
310 311 307 301 301 297 295 297 295 297 296 300 296 289 287 290 292 293 294 295 296 296 296 294 294 294 292 292 292 290 290 288 286 284 283 283 284 285 288 288 288 287 288 288 286 285 286 286 286 286 286 286 286 286
305 308 300 295 293 290 291 294 292 295 294 292 291 291 291 292 295 297 296 296 295 293 293 293 291 290 288 288 287 288 290 289 289 286 284 283 284 287 287 287 286 287 288 287 287 287 286 287 286 286 286 285 285 285
308 304 298 294 291 291 293 295 296 296 294 293 294 291 290 293 296 298 299 299 294 292 291 289 289 289 288 287 287 286 285 288 290 289 288 288 288 287 287 287 287 288 288 287 287 286 286 285 285 284 284 284 284 284
305 300 297 292 291 296 298 295 294 293 293 292 291 293 292 291 289 293 296 296 293 291 287 289 288 288 290 290 290 289 285 289 289 289 289 288 288 288 288 287 288 288 287 287 287 286 285 285 284 284 284 284 284 284
301 299 298 297 295 296 297 295 292 290 291 290 290 291 291 290 287 293 298 298 294 291 290 290 290 291 292 291 290 290 288 291 288 283 283 283 282 284 285 288 288 288 287 287 286 286 285 284 284 284 284 284 284 283
Wind_Speed
16 16 17 16 16 17 16 15 14 15 15 16 16 15 14 13 11 6 7 7 4 4 11 3 5 8 11 5 3 6 6 4 3 3 3 3 3 3 2 3 4 3 2 1 2 3 1 7 2 4 4 1 0 3
17 16 18 17 16 17 16 15 14 14 15 16 16 15 14 12 10 7 5 6 6 5 8 15 13 8 3 7 2 4 2 4 1 0 3 4 3 2 3 4 3 2 7 6 7 5 4 4 5 4 3 3 5 4
19 18 18 17 17 17 16 14 14 14 15 15 16 15 14 12 9 4 5 5 5 4 5 3 9 8 10 3 3 3 2 2 2 3 3 3 4 2 2 5 3 5 4 3 6 3 6 6 4 5 6 3 5 4
17 18 18 17 18 16 15 14 14 13 15 15 16 14 14 13 10 5 4 3 3 5 5 6 2 10 10 1 7 7 4 0 2 2 3 2 2 3 4 3 3 3 4 5 4 4 8 6 7 6 4 6 5 4
18 18 18 18 17 16 15 14 13 13 14 15 16 14 14 14 14 10 9 7 8 3 5 6 3 11 11 4 11 5 4 3 2 3 1 2 3 2 3 4 7 12 3 4 2 4 6 3 5 7 6 2 2 3
19 20 18 17 16 15 14 13 13 13 14 15 16 14 13 12 12 5 3 3 8 4 4 5 4 6 7 12 9 6 5 4 2 2 2 3 2 3 2 4 1 17 19 12 3 6 4 6 8 5 1 5 6 6
21 19 18 17 16 14 13 11 14 14 14 15 15 15 12 9 3 4 4 0 4 4 4 5 5 6 10 8 4 3 3 1 3 2 1 2 1 4 4 3 7 9 9 13 7 8 11 20 10 8 10 8 7 6
19 18 18 16 15 13 12 12 13 14 15 15 16 16 13 10 11 8 9 21 6 3 5 4 6 5 5 4 3 2 2 3 4 2 1 1 2 4 2 5 7 7 3 4 7 6 7 11 5 6 4 7 8 12
17 17 17 16 14 13 12 11 12 14 14 15 17 20 5 5 5 5 5 14 5 2 3 3 3 5 2 4 4 3 2 3 5 3 1 5 4 3 3 2 5 10 6 6 8 7 8 12 12 11 12 13 11 10
16 16 16 15 13 12 11 11 12 13 14 13 6 4 4 5 5 7 1 3 3 4 4 5 2 6 2 1 3 4 2 4 3 2 5 6 2 6 4 4 11 5 7 5 4 9 7 10 12 13 9 8 8 8
17 16 15 14 13 12 11 9 8 11 11 4 4 4 5 1 2 4 4 5 6 5 6 6 10 8 5 4 4 5 4 3 2 4 4 4 3 3 5 7 6 5 13 14 14 12 11 12 10 14 17 17 16 18
16 16 15 14 12 12 11 8 4 2 2 5 6 8 5 4 4 5 5 5 5 6 4 7 4 7 2 2 2 3 4 4 3 1 6 4 3 4 5 4 4 10 12 13 14 13 19 18 14 15 15 14 13 12
15 15 14 13 13 12 11 9 10 10 12 4 4 6 5 3 1 6 6 4 4 1 2 3 2 5 2 1 1 1 5 3 3 5 5 3 6 9 9 8 13 15 17 18 19 17 16 15 16 16 14 14 14 14
14 14 13 13 13 12 10 8 6 4 4 5 5 5 5 6 6 5 3 2 4 7 1 1 2 2 2 2 2 3 3 1 2 4 4 2 8 11 13 16 18 19 19 17 16 16 15 15 14 14 14 14 13 14
13 12 11 13 16 14 11 8 8 4 4 6 5 6 7 5 3 5 3 3 6 8 10 0 2 3 3 4 4 4 3 5 6 5 3 4 13 15 15 16 16 16 15 14 14 15 16 16 14 13 13 11 11 9
8 7 11 14 14 14 12 10 6 4 5 5 8 6 3 3 2 7 5 6 9 13 16 2 1 3 2 5 7 8 4 5 3 5 8 10 14 14 14 13 13 12 13 13 13 12 11 12 11 8 8 13 12 12
5 6 1 15 16 15 22 6 6 7 6 6 4 4 3 4 6 10 3 1 3 3 2 2 4 7 5 6 5 6 3 6 7 9 8 12 13 11 10 11 12 12 11 9 8 7 6 5 7 11 11 12 11 11
6 3 12 20 15 11 5 5 5 6 8 6 4 2 4 8 9 6 7 9 5 4 5 6 6 8 7 5 4 4 5 8 7 8 8 9 9 9 8 9 10 9 7 5 5 9 10 9 8 8 9 9 10 9
3 3 6 12 2 3 8 8 5 5 7 3 5 4 5 5 9 6 11 9 9 8 6 6 8 6 5 4 5 5 4 5 6 5 5 5 4 7 6 7 6 5 5 7 8 7 6 7 7 8 7 6 7 7
16 13 8 6 5 4 5 4 1 2 3 3 5 7 4 4 4 9 11 11 11 8 9 7 5 5 5 6 6 5 5 6 6 5 5 4 3 3 2 2 2 3 6 8 8 7 5 6 5 6 6 5 8 8
9 6 9 6 5 3 5 3 2 1 4 3 4 4 4 6 5 7 7 8 9 7 5 4 5 6 7 7 6 5 5 4 4 4 3 3 4 6 6 5 6 6 7 7 7 6 7 5 5 6 7 6 8 7
4 18 5 6 5 9 7 5 5 4 5 4 10 5 4 4 4 6 5 9 6 4 4 4 4 6 8 9 6 7 6 4 4 4 5 6 5 5 5 6 7 6 7 7 7 6 5 5 5 7 6 7 8 7
12 6 4 6 7 2 6 4 3 4 3 2 5 5 4 4 5 5 7 5 4 4 5 5 5 11 8 5 5 6 7 7 6 6 7 6 5 6 6 7 7 6 6 6 7 7 5 7 8 8 7 8 8 8
5 4 4 2 1 5 2 6 3 3 7 6 3 7 5 5 5 6 5 3 2 3 5 7 5 4 3 1 2 5 6 6 6 6 7 6 6 6 6 6 6 6 6 6 7 7 6 7 9 8 9 10 11 10
3 5 6 5 4 6 5 3 2 4 6 8 8 6 4 4 5 5 4 3 3 3 3 3 2 1 2 3 3 6 8 7 6 6 7 7 5 5 6 6 5 6 7 8 9 9 8 8 8 9 11 11 13 14
5 2 5 6 4 3 4 2 3 10 4 1 5 5 5 6 5 5 3 3 2 2 2 2 3 4 1 5 5 5 6 6 6 6 6 7 6 6 6 7 7 6 8 8 10 10 11 11 11 14 13 14 13 14
3 5 4 5 4 6 2 7 9 8 9 8 4 4 5 6 5 3 2 1 2 1 1 2 4 5 5 5 4 5 5 5 5 3 5 5 7 6 6 7 8 6 8 10 10 10 11 11 12 13 13 12 12 12
2 8 9 8 9 9 6 7 8 8 6 8 4 8 5 5 3 3 2 3 2 2 3 4 6 2 4 3 5 6 6 6 6 5 5 5 7 6 7 7 7 11 9 10 7 9 9 10 11 13 13 13 12 12
5 6 7 14 9 10 12 9 8 6 7 6 4 5 4 3 2 4 3 3 3 4 4 2 2 5 5 6 6 6 5 5 7 10 11 7 7 6 7 8 8 8 8 8 8 7 9 10 10 10 13 11 11 12
6 5 7 11 9 8 7 7 8 8 7 6 6 7 7 5 3 3 3 3 3 4 5 4 6 6 5 5 5 6 5 6 5 5 6 7 7 7 8 8 9 9 8 9 10 11 10 11 11 10 11 11 11 12
5 5 8 8 7 8 9 10 10 11 12 13 11 11 10 5 4 3 4 2 7 6 5 5 5 6 5 5 5 6 5 5 7 7 6 5 6 7 7 8 8 8 8 10 10 11 12 11 11 12 14 16 17 16
5 6 8 8 8 9 9 7 9 10 9 9 10 8 8 6 5 4 5 4 5 7 5 5 5 5 5 5 5 4 2 5 5 6 8 4 5 6 7 7 8 8 10 11 11 10 13 14 12 14 14 17 17 17
15 16 16 12 9 11 7 6 4 4 4 3 4 4 6 4 3 1 2 3 5 6 5 4 5 4 5 6 6 5 6 5 7 2 4 5 5 7 6 7 8 8 10 10 10 11 13 16 15 17 17 17 17 18
Wind_Direction
289 289 291 293 293 295 293 295 298 301 306 309 313 322 330 341 338 331 269 261 231 288 295 304 308 347 341 2 42 304 20 336 73 74 130 159 186 207 285 73 252 275 342 18 313 1 180 193 246 281 194 36 148 109
283 283 284 286 288 288 286 289 293 297 302 306 308 317 324 336 335 333 281 337 320 238 274 296 277 236 111 269 258 332 163 8 327 267 176 143 176 238 181 212 249 206 191 177 192 225 188 211 131 89 66 50 14 95
280 279 277 280 285 280 280 284 287 292 298 303 305 312 319 328 326 306 289 309 294 261 261 259 253 310 314 311 164 112 352 346 347 175 272 263 109 198 176 234 236 244 150 228 177 214 177 186 110 81 35 95 55 58
279 280 274 276 280 273 276 278 282 289 296 302 303 309 316 321 314 287 262 294 291 266 271 285 31 280 259 59 304 164 207 325 243 210 233 261 163 190 225 141 212 219 131 221 112 62 90 82 95 96 48 42 54 45
274 279 269 272 270 268 270 273 279 288 294 301 302 310 315 320 309 280 238 232 224 253 317 292 273 249 265 297 288 210 160 233 271 313 267 296 102 120 228 119 41 334 231 21 150 102 112 110 79 80 68 33 307 255
272 272 263 264 261 263 266 271 278 287 294 300 302 306 313 318 326 280 288 153 216 212 278 285 262 234 221 208 243 255 211 236 188 297 322 313 87 88 356 98 308 354 317 351 32 65 71 41 38 86 248 303 313 318
270 261 257 254 256 258 259 270 283 291 297 295 297 298 304 301 298 244 277 180 55 305 248 260 273 241 178 175 191 215 31 214 125 243 348 357 286 89 54 65 228 223 287 310 72 63 27 18 316 27 31 338 7 344
263 250 248 246 250 253 254 267 279 289 291 294 295 296 297 283 270 273 233 239 176 233 280 268 276 327 182 182 193 70 68 19 346 141 211 189 343 64 98 235 279 273 301 266 79 101 168 213 7 18 350 346 1 10
251 241 240 241 244 246 254 264 281 289 290 295 297 297 283 191 223 235 81 126 169 215 285 268 246 270 130 222 94 105 101 64 313 204 229 61 19 5 310 330 258 269 292 52 47 46 36 40 43 42 49 46 35 17
237 236 237 237 237 242 252 263 278 286 288 296 285 234 236 207 98 109 159 147 171 218 233 248 281 287 296 0 40 111 180 207 224 222 95 73 273 295 318 300 279 37 48 40 36 53 41 20 16 23 22 17 7 11
230 231 233 233 233 241 250 262 279 309 277 199 224 234 344 74 216 215 226 197 183 215 208 224 215 242 263 194 183 191 191 219 223 192 144 106 100 250 329 341 307 62 79 68 73 75 75 69 44 35 23 18 30 32
226 230 229 229 235 242 248 247 230 243 312 309 282 281 256 216 216 222 209 210 210 209 236 180 216 194 233 128 143 189 211 198 64 143 62 63 340 134 198 165 10 55 61 55 53 46 60 56 49 50 45 38 32 37
223 224 225 230 236 242 241 234 217 265 315 257 227 235 188 210 45 222 216 236 206 242 186 154 212 143 114 97 256 263 23 86 76 63 82 333 310 358 1 327 51 47 55 61 52 49 53 54 55 50 44 34 32 30
220 225 230 235 237 235 234 230 219 234 234 238 224 288 188 212 208 223 265 29 319 331 335 98 87 91 132 161 220 66 0 281 109 79 79 313 26 35 52 49 52 46 52 51 48 43 38 35 42 40 38 29 22 30
221 231 240 250 235 231 221 202 188 195 268 236 229 219 217 250 74 340 93 86 5 326 334 271 107 118 204 216 97 77 325 59 34 57 88 47 57 59 54 50 50 44 38 38 35 35 27 19 22 31 28 23 19 22
209 249 226 218 208 205 181 160 174 232 242 232 223 264 193 146 58 326 308 129 179 214 243 336 128 162 278 36 55 16 33 40 78 54 60 58 52 52 49 45 47 44 44 40 34 34 23 15 16 20 16 20 5 358
126 245 207 214 185 154 166 180 191 224 246 248 239 237 227 49 103 213 99 353 310 58 265 250 48 56 30 49 54 18 34 57 69 65 54 52 48 40 38 42 39 42 44 38 28 25 33 357 21 26 22 6 350 16
242 77 132 132 137 128 175 219 236 224 237 252 280 85 64 55 46 341 32 23 20 14 27 43 19 45 41 53 64 356 65 84 83 74 57 50 49 41 37 41 46 29 25 355 21 28 21 42 30 21 8 8 6 358
31 48 150 195 214 266 177 198 226 248 223 260 108 88 70 71 50 34 41 28 55 39 66 54 46 41 55 37 78 54 45 45 80 80 75 57 47 58 24 54 55 13 339 47 32 27 10 51 39 14 359 4 359 347
258 291 273 238 204 261 221 151 92 246 287 101 57 42 50 58 98 57 45 35 42 56 50 46 54 49 61 57 52 38 34 29 28 55 43 12 325 61 65 22 357 351 41 41 24 19 17 30 27 8 346 3 349 336
148 175 164 191 181 246 332 241 100 305 294 77 145 33 83 72 49 36 46 12 54 31 70 77 85 82 70 52 32 67 71 59 82 53 345 353 344 33 22 25 27 37 49 33 8 3 22 20 358 355 339 0 343 338
167 164 156 197 221 201 226 210 123 271 50 202 168 157 100 84 63 46 66 43 63 30 17 39 60 113 77 57 41 18 344 344 87 87 18 0 17 28 13 35 33 39 45 27 355 356 6 7 355 347 340 349 335 332
148 191 222 168 221 113 279 351 242 163 84 76 110 96 68 69 86 93 74 58 81 18 17 23 37 52 62 57 58 22 348 5 20 45 38 6 1 32 31 35 33 49 40 20 348 341 343 354 348 334 335 341 332 338
229 213 220 90 68 74 295 249 216 182 129 145 150 106 98 103 112 68 74 72 74 55 43 33 44 64 57 16 78 63 18 24 15 32 31 5 5 28 41 31 21 52 38 9 345 329 339 351 333 332 344 341 343 340
91 320 99 338 259 222 200 225 181 69 47 92 91 91 104 87 72 69 80 105 91 65 47 40 53 345 313 332 53 73 46 31 17 13 21 359 12 19 27 23 9 46 22 1 335 326 342 336 332 343 345 341 339 337
99 126 110 236 218 209 190 191 196 141 125 118 88 94 65 65 73 78 84 119 119 105 63 14 341 317 17 42 51 50 57 50 34 11 2 354 30 28 21 9 356 15 2 347 325 334 338 342 350 343 337 337 332 330
116 186 193 18 6 355 326 58 34 48 48 37 26 80 84 76 82 87 113 120 132 156 218 281 291 307 48 19 39 67 74 71 68 8 355 4 31 35 28 10 5 5 350 330 330 336 341 346 340 335 334 331 328 327
312 26 74 39 62 16 47 43 39 29 24 336 53 37 53 56 99 110 121 168 151 186 240 250 258 313 53 24 44 39 48 45 19 13 4 32 22 16 22 12 0 354 328 316 328 345 346 342 334 330 327 325 326 326
59 78 71 58 59 46 28 26 23 29 348 322 68 84 91 68 113 127 145 172 213 253 260 125 96 48 35 29 46 41 58 42 10 5 0 13 354 358 12 1 347 328 315 331 341 332 331 330 317 321 324 324 324 323
45 48 91 46 51 50 27 27 32 39 55 74 94 106 91 89 85 122 157 196 210 58 37 38 54 53 32 21 9 17 53 36 15 13 24 357 344 358 354 342 330 316 331 338 332 328 324 323 327 330 329 332 328 327
97 81 76 71 77 109 112 101 87 75 72 80 84 92 102 119 159 203 246 63 99 77 36 34 43 57 31 15 3 10 10 -0 355 35 30 354 357 345 337 335 319 325 334 329 329 324 329 337 337 333 332 331 333 335
70 99 125 110 140 163 125 73 66 79 80 88 98 106 109 94 65 26 0 30 70 93 68 34 16 30 33 353 16 23 16 343 4 13 350 17 337 336 334 322 321 332 324 323 325 333 338 339 336 334 330 332 332 332
89 95 105 108 133 161 113 112 94 92 64 56 47 34 42 64 76 10 255 98 72 77 59 26 359 17 12 16 10 12 357 355 19 80 168 257 273 275 292 309 320 321 323 332 335 341 340 340 336 333 332 333 334 335